Columbia Airport, CA

6:30 PM PST on December 14, 2019 (GMT -0800)
Columbia Airport

Weather History for KO22 - November, 2019

Change the Weather History Date:

Wednesday, November 20, 2019

  Actual Average (KMOD) Record (KMOD)
Temperature  
Mean Temperature 48 °F -  
Max Temperature 60 °F 60 °F 75 °F (1932)
Min Temperature 35 °F 41 °F 26 °F (1964)
Degree Days  
Heating Degree Days 18    
Moisture  
Dew Point 40 °F    
Average Humidity 81    
Maximum Humidity 100    
Minimum Humidity 48    
Precipitation  
Precipitation 0.00 in - - ()
Sea Level Pressure  
Sea Level Pressure 29.54 in    
Wind  
Wind Speed 1 mph ()    
Max Wind Speed 7 mph    
Max Gust Speed 12 mph    
Visibility 9.9 miles    
Events      
Averages and records for this station are not official NWS values.
T = Trace of Precipitation, MM = Missing Value Source: Averaged Metar Reports

Daily Weather History Graph

Daily Weather History Graph

Search for Another Location

Airport or City:

Astronomy

Nov. 20, 2019 Rise Set
Actual Time 6:47 AM PST 4:46 PM PST
Civil Twilight 6:19 AM PST 5:14 PM PST
Nautical Twilight 5:47 AM PST 5:47 PM PST
Astronomical Twilight 5:15 AM PST 6:18 PM PST
Moon No Moon Rise 1:37 PM PST (11/20)
Length of Visible Light 10h 55m
Length of Day
9h 58m
Last Quarter, 39% of the Moon is Illuminated
Nov 20
Last Quarter
Nov 26
New
Dec 3
First Quarter
Dec 11
Full
Dec 18
Last Quarter

Hourly Weather History & Observations

Time (PST) Temp. Windchill Dew Point Humidity Pressure Visibility Wind Dir Wind Speed Gust Speed Precip Events Conditions
12:35 AM 42.8 °F - 41.0 °F 93% 29.52 in 10.0 mi Calm Calm - N/A   Mostly Cloudy
12:55 AM 41.0 °F - 39.2 °F 93% 29.52 in 10.0 mi Calm Calm - N/A   Mostly Cloudy
1:15 AM 41.0 °F - 39.2 °F 93% 29.51 in 10.0 mi Calm Calm - N/A   Scattered Clouds
1:35 AM 39.2 °F - 37.4 °F 93% 29.52 in 10.0 mi Calm Calm - N/A   Clear
1:55 AM 39.2 °F - 39.2 °F 100% 29.52 in 10.0 mi Calm Calm - N/A   Clear
2:15 AM 39.2 °F - 37.4 °F 93% 29.51 in 10.0 mi Calm Calm - N/A   Clear
2:35 AM 39.2 °F - 39.2 °F 100% 29.50 in 10.0 mi Calm Calm - N/A   Clear
2:55 AM 39.2 °F - 39.2 °F 100% 29.50 in 10.0 mi Calm Calm - N/A   Clear
3:15 AM 39.2 °F - 37.4 °F 93% 29.50 in 10.0 mi Calm Calm - N/A   Clear
3:35 AM 39.2 °F - 39.2 °F 100% 29.49 in 10.0 mi Calm Calm - N/A   Clear
3:55 AM 37.4 °F - 37.4 °F 100% 29.49 in 10.0 mi Calm Calm - N/A   Clear
4:15 AM 37.4 °F - 37.4 °F 100% 29.49 in 10.0 mi Calm Calm - N/A   Clear
4:35 AM 37.4 °F - 35.6 °F 93% 29.49 in 10.0 mi Calm Calm - N/A   Clear
4:55 AM 37.4 °F - 35.6 °F 93% 29.49 in 10.0 mi Calm Calm - N/A   Clear
5:15 AM 37.4 °F - 35.6 °F 93% 29.49 in 10.0 mi Calm Calm - N/A   Clear
5:35 AM 37.4 °F - 35.6 °F 93% 29.49 in 10.0 mi Calm Calm - N/A   Clear
5:55 AM 35.6 °F - 35.6 °F 100% 29.50 in 10.0 mi Calm Calm - N/A   Clear
6:15 AM 35.6 °F - 35.6 °F 100% 29.50 in 10.0 mi Calm Calm - N/A   Clear
6:35 AM 35.6 °F - 35.6 °F 100% 29.49 in 10.0 mi Calm Calm - N/A   Clear
6:55 AM 35.6 °F - 35.6 °F 100% 29.49 in 10.0 mi Calm Calm - N/A   Clear
7:15 AM 37.4 °F - 37.4 °F 100% 29.50 in 10.0 mi Calm Calm - N/A   Clear
7:35 AM 39.2 °F - 37.4 °F 93% 29.49 in 10.0 mi Calm Calm - N/A   Clear
7:55 AM 42.8 °F - 41.0 °F 93% 29.50 in 10.0 mi Calm Calm - N/A   Clear
8:15 AM 46.4 °F 43.5 °F 41.0 °F 81% 29.51 in 10.0 mi SW 5.8 mph - N/A   Clear
8:35 AM 48.2 °F - 39.2 °F 71% 29.51 in 10.0 mi Calm Calm - N/A   Clear
8:55 AM 50.0 °F - 37.4 °F 62% 29.51 in 10.0 mi Variable 3.5 mph - N/A   Clear
9:15 AM 53.6 °F - 37.4 °F 54% 29.51 in 10.0 mi SSW 5.8 mph - N/A   Clear
9:35 AM 53.6 °F - 37.4 °F 54% 29.51 in 10.0 mi Variable 3.5 mph - N/A   Clear
9:55 AM 55.4 °F - 41.0 °F 58% 29.51 in 10.0 mi South 3.5 mph - N/A   Clear
10:35 AM 55.4 °F - 41.0 °F 58% 29.51 in 10.0 mi Calm Calm - N/A   Clear
10:55 AM 59.0 °F - 42.8 °F 55% 29.50 in 10.0 mi Calm Calm - N/A   Clear
11:15 AM 59.0 °F - 42.8 °F 55% 29.49 in 10.0 mi Variable 4.6 mph - N/A   Clear
11:35 AM 59.0 °F - 42.8 °F 55% 29.49 in 10.0 mi Variable 3.5 mph - N/A   Clear
11:55 AM 60.8 °F - 42.8 °F 52% 29.49 in 10.0 mi Variable 3.5 mph - N/A   Clear
12:15 PM 59.0 °F - 42.8 °F 55% 29.48 in 10.0 mi South 3.5 mph - N/A   Clear
12:35 PM 60.8 °F - 41.0 °F 48% 29.48 in 10.0 mi SSW 4.6 mph - N/A   Clear
12:55 PM 60.8 °F - 42.8 °F 52% 29.48 in 10.0 mi SSW 6.9 mph - N/A   Clear
1:15 PM 60.8 °F - 42.8 °F 52% 29.48 in 10.0 mi South 5.8 mph 11.5 mph N/A   Partly Cloudy
1:35 PM 59.0 °F - 42.8 °F 55% 29.48 in 10.0 mi Variable 6.9 mph - N/A   Clear
1:55 PM 59.0 °F - 44.6 °F 59% 29.49 in 10.0 mi Variable 6.9 mph - N/A   Clear
2:15 PM 59.0 °F - 44.6 °F 59% 29.50 in 10.0 mi Variable 4.6 mph 11.5 mph N/A   Partly Cloudy
2:35 PM 57.2 °F - 44.6 °F 63% 29.51 in 10.0 mi South 5.8 mph - N/A   Partly Cloudy
3:15 PM 57.2 °F - 44.6 °F 63% 29.51 in 10.0 mi South 4.6 mph - N/A   Clear
3:35 PM 55.4 °F - 44.6 °F 67% 29.51 in 10.0 mi Variable 4.6 mph - N/A   Clear
4:15 PM 55.4 °F - 44.6 °F 67% 29.53 in 10.0 mi Variable 4.6 mph - N/A   Clear
4:35 PM 53.6 °F - 44.6 °F 72% 29.53 in 7.0 mi SSE 4.6 mph - N/A   Clear
4:55 PM 51.8 °F - 44.6 °F 76% 29.54 in 10.0 mi Calm Calm - N/A   Clear
5:15 PM 50.0 °F - 42.8 °F 76% 29.56 in 10.0 mi Calm Calm - N/A   Clear
5:35 PM 48.2 °F - 42.8 °F 82% 29.56 in 10.0 mi Calm Calm - N/A   Clear
5:55 PM 48.2 °F - 42.8 °F 82% 29.57 in 10.0 mi Calm Calm - N/A   Clear
6:15 PM 46.4 °F - 42.8 °F 87% 29.58 in 10.0 mi Calm Calm - N/A   Clear
6:35 PM 46.4 °F - 41.0 °F 81% 29.59 in 10.0 mi Calm Calm - N/A   Clear
6:55 PM 44.6 °F - 41.0 °F 87% 29.59 in 10.0 mi Calm Calm - N/A   Clear
7:15 PM 44.6 °F - 41.0 °F 87% 29.60 in 10.0 mi Calm Calm - N/A   Clear
7:35 PM 44.6 °F - 41.0 °F 87% 29.61 in 10.0 mi Calm Calm - N/A   Clear
8:15 PM 44.6 °F - 41.0 °F 87% 29.61 in 10.0 mi Calm Calm - N/A   Clear
8:55 PM 42.8 °F - 39.2 °F 87% 29.64 in 7.0 mi Calm Calm - N/A   Clear
9:15 PM 42.8 °F - 41.0 °F 93% 29.65 in 10.0 mi Calm Calm - N/A   Clear
9:35 PM 41.0 °F - 39.2 °F 93% 29.66 in 10.0 mi Calm Calm - N/A   Clear
9:55 PM 41.0 °F - 39.2 °F 93% 29.67 in 10.0 mi Calm Calm - N/A   Clear
10:15 PM 39.2 °F - 37.4 °F 93% 29.68 in 10.0 mi Calm Calm - N/A   Clear
10:35 PM 41.0 °F - 39.2 °F 93% 29.68 in 10.0 mi Calm Calm - N/A   Clear
10:55 PM 41.0 °F - 39.2 °F 93% 29.69 in 10.0 mi Calm Calm - N/A   Clear
11:15 PM 41.0 °F - 39.2 °F 93% 29.70 in 10.0 mi Calm Calm - N/A   Partly Cloudy
11:35 PM 42.8 °F - 39.2 °F 87% 29.71 in 10.0 mi Calm Calm - N/A   Partly Cloudy
11:55 PM 41.0 °F - 39.2 °F 93% 29.71 in 10.0 mi Calm Calm - N/A   Mostly Cloudy